FW4151 Weather Reports


time (UTC)temp
F
wind
direction
speed
knots
gust
knots
rain 1hr
in
rain 24hr
in
rain mn
in
humidity
%
barometer
mb
20260503023010 38 0.0 0.0 0.00 0.03 0.01 67 1013.4
20260503021510 39 0.0 0.0 0.00 0.03 0.01 66 1013.5
20260503020009 39 0.0 0.0 0.00 0.03 0.01 66 1013.4
20260503014509 39 0.0 0.0 0.00 0.05 0.01 63 1013.4
20260503013019 39 0.0 0.0 0.00 0.05 0.01 62 1013.3
20260503011507 40 0.0 0.0 0.00 0.05 0.01 61 1013.2
20260503010005 40 0.0 0.0 0.00 0.05 0.01 60 1013.0
20260503004505 40 0.0 0.0 0.00 0.08 0.01 60 1013.0
20260503003005 40 0.0 0.0 0.00 0.08 0.01 59 1012.8
20260503001504 41 0.0 0.0 0.00 0.08 0.01 59 1012.7
20260503000009 41 0.0 0.0 0.00 0.08 0.01 60 1012.7
20260502234502 41 0.0 0.0 0.00 0.16 0.01 60 1012.6
20260502233002 42 0.0 0.0 0.00 0.16 0.01 59 1012.5
20260502231502 42 0.0 0.0 0.00 0.16 0.01 60 1012.4
20260502230000 42 0.0 0.0 0.00 0.16 0.01 60 1012.3
20260502224600 43 0.0 0.0 0.00 0.16 0.01 56 1012.2
20260502223200 43 0.0 0.0 0.00 0.16 0.01 57 1012.2
20260502221604 44 0.0 0.0 0.00 0.16 0.01 57 1012.3
20260502220104 44 0.0 0.0 0.00 0.16 0.01 55 1012.2
20260502214607 44 0.0 0.0 0.00 0.16 0.01 53 1012.2
20260502213057 45 0.0 0.0 0.00 0.16 0.01 53 1012.0
20260502211606 45 0.0 0.0 0.00 0.16 0.01 53 1011.9
20260502204556 46 0.0 0.0 0.00 0.16 0.01 49 1011.9
20260502203103 46 0.0 0.0 0.00 0.16 0.01 46 1011.8
20260502201555 46 0.0 0.0 0.00 0.16 0.01 52 1012.0
20260502200054 45 0.0 0.0 0.00 0.16 0.01 47 1012.1
20260502194555 45 0.0 0.0 0.00 0.16 0.01 47 1012.4
20260502193053 45 0.0 0.0 0.00 0.16 0.01 51 1012.5
20260502191552 45 0.0 0.0 0.00 0.16 0.01 46 1012.7
20260502190053 45 0.0 0.0 0.00 0.16 0.01 51 1012.8
20260502184553 45 0.0 0.0 0.00 0.16 0.01 51 1012.8
20260502183055 45 0.0 0.0 0.00 0.16 0.01 52 1012.8
20260502181552 45 0.0 0.0 0.00 0.16 0.01 48 1012.8
20260502163050 46 0.0 0.0 0.00 0.16 0.01 49 1012.7
20260502161546 45 0.0 0.0 0.00 0.16 0.01 51 1012.8
20260502151539 43 0.0 0.0 0.00 0.16 0.01 62 1013.0
20260502123021 38 0.0 0.0 0.00 0.16 0.01 86 1012.9
20260502121518 38 0.0 0.0 0.00 0.16 0.01 85 1012.9
20260502114515 38 0.0 0.0 0.00 0.16 0.01 88 1012.9
20260502113017 38 0.0 0.0 0.00 0.16 0.01 92 1012.9
20260502111511 37 0.0 0.0 0.00 0.16 0.01 92 1012.8
20260502110006 0 0.0 0.0 0.00 0.16 0.01 1012.4
20260502104508 0 0.0 0.0 0.00 0.16 0.01 1012.5
20260502103113 0 0.0 0.0 0.00 0.16 0.01 1012.5
20260502101555 0 0.0 0.0 0.00 0.16 0.01 1012.5
20260502100109 0 0.0 0.0 0.00 0.16 0.01 1012.3
20260502070022 38 0.0 0.0 0.00 0.15 0.00 91 1011.7
20260502064518 38 0.0 0.0 0.00 0.15 0.00 90 1011.7
20260502063017 38 0.0 0.0 0.00 0.15 0.00 91 1011.5
20260502061515 39 0.0 0.0 0.00 0.15 0.00 92 1011.7
20260502060013 40 0.0 0.0 0.00 0.15 0.00 92 1011.5
20260502054517 40 0.0 0.0 0.00 0.15 0.00 93 1011.4
20260502053011 40 0.0 0.0 0.00 0.15 0.00 92 1011.4
20260502051522 40 0.0 0.0 0.00 0.15 0.00 92 1011.2
20260502050007 40 0.0 0.0 0.00 0.15 0.00 91 1011.3
20260502044505 40 0.0 0.0 0.00 0.15 0.00 91 1011.5
20260502043004 41 0.0 0.0 0.00 0.15 0.00 91 1011.7
20260502041501 41 0.0 0.0 0.00 0.15 0.00 92 1011.6
20260502040058 42 0.0 0.0 0.01 0.15 0.00 93 1011.4
20260502034558 42 0.0 0.0 0.01 0.15 0.15 93 1011.2
20260502033058 42 0.0 0.0 0.01 0.15 0.15 93 1011.1
20260502031611 42 0.0 0.0 0.01 0.15 0.15 92 1011.3
20260502030056 42 0.0 0.0 0.01 0.14 0.14 92 1011.4
20260502024558 42 0.0 0.0 0.02 0.14 0.14 92 1011.4